{"data":{"norad_id":48329,"epoch":"2026-05-25T03:02:40.164000Z","epoch_age_seconds":67387,"freshness":"FRESH","line1":"1 48329U 21036BF  26145.12685375  .00000290  00000+0  21113-4 0  9995","line2":"2 48329  53.1606 105.4679 0001387 101.3168 258.7989 15.31690463279756","mean_motion":15.31690463,"eccentricity":0.0001387,"inclination_deg":53.1606,"raan_deg":105.4679,"arg_perigee_deg":101.3168,"mean_anomaly_deg":258.7989,"bstar":2.1113e-5,"rev_number":27975,"period_min":94.013773329866,"perigee_km":469.81848149149,"apogee_km":471.7183678563,"semimajor_km":6848.9054246739,"source":"CELESTRAK","updated_at":"2026-05-25T13:38:16.683038Z"}}